FW6802 Weather Reports


Display with metric or nautical units.
time (UTC)temp
F
wind
direction
speed
MPH
gust
MPH
rain 1hr
in
rain 24hr
in
rain mn
in
humidity
%
barometer
mb
20260508230313 57 304 0.0 12.0 0.05 0.00 0.05 89 1007.7
20260508225812 57 304 0.0 12.0 0.05 0.00 0.05 88 1007.5
20260508225311 58 304 0.0 12.0 0.05 0.00 0.05 88 1007.4
20260508224255 58 304 1.0 12.0 0.03 0.00 0.03 86 1007.6
20260508223754 58 298 2.0 12.0 0.03 0.00 0.03 85 1008.0
20260508223254 59 315 3.0 12.0 0.02 0.00 0.02 84 1007.7
20260508222754 59 305 0.0 12.0 0.02 0.00 0.02 83 1007.7
20260508222253 60 310 2.0 12.0 0.01 0.00 0.01 81 1007.9
20260508221754 60 297 2.0 12.0 0.01 0.00 0.01 79 1007.5
20260508221252 61 280 2.0 12.0 0.00 0.00 0.00 76 1007.5
20260508220752 61 288 3.0 12.0 0.00 0.00 0.00 71 1007.2
20260508215736 62 246 4.0 12.0 0.00 0.00 0.00 69 1007.2
20260508215236 62 234 4.0 12.0 0.00 0.00 0.00 67 1007.4
20260508214736 63 234 3.0 12.0 0.00 0.00 0.00 65 1007.1
20260508214236 63 234 5.0 19.0 0.00 0.00 0.00 63 1007.2
20260508213222 64 213 6.0 15.0 0.00 0.00 0.00 61 1007.1
20260508212205 64 205 3.0 12.0 0.00 0.00 0.00 62 1006.8
20260508211704 65 215 3.0 12.0 0.00 0.00 0.00 61 1006.6
20260508211204 65 220 5.0 12.0 0.00 0.00 0.00 59 1006.8
20260508210704 65 218 5.0 12.0 0.00 0.00 0.00 58 1007.0
20260508210203 66 211 4.0 12.0 0.00 0.00 0.00 57 1006.7
20260508205704 66 192 3.0 12.0 0.00 0.00 0.00 56 1006.9
20260508205204 66 206 3.0 12.0 0.00 0.00 0.00 55 1006.7
20260508204704 66 200 3.0 12.0 0.00 0.00 0.00 55 1006.6
20260508204204 66 205 4.0 12.0 0.00 0.00 0.00 55 1007.0
20260508203703 66 207 4.0 12.0 0.00 0.00 0.00 55 1006.8
20260508202647 66 202 2.0 12.0 0.00 0.00 0.00 55 1006.8
20260508202148 67 200 3.0 12.0 0.00 0.00 0.00 55 1007.0
20260508201133 67 216 2.0 12.0 0.00 0.00 0.00 55 1007.3
20260508200633 66 201 3.0 12.0 0.00 0.00 0.00 55 1007.2
20260508200133 66 218 2.0 12.0 0.00 0.00 0.00 55 1007.2
20260508195631 66 207 2.0 12.0 0.00 0.00 0.00 55 1007.2
20260508194616 66 200 2.0 12.0 0.00 0.00 0.00 55 1007.7
20260508193600 66 206 3.0 12.0 0.00 0.00 0.00 55 1007.8
20260508192029 66 193 2.0 12.0 0.00 0.00 0.00 54 1008.1
20260508191014 66 208 4.0 12.0 0.00 0.00 0.00 53 1008.3
20260508185959 66 208 5.0 12.0 0.00 0.00 0.00 53 1008.3
20260508185458 66 214 4.0 12.0 0.00 0.00 0.00 53 1008.4
20260508184958 66 202 4.0 12.0 0.00 0.00 0.00 54 1008.5
20260508184458 66 216 5.0 12.0 0.00 0.00 0.00 54 1008.3
20260508183957 66 191 4.0 12.0 0.00 0.00 0.00 53 1008.2
20260508183456 66 193 4.0 15.0 0.00 0.00 0.00 54 1008.6
20260508182956 66 201 4.0 15.0 0.00 0.00 0.00 53 1008.7
20260508182455 66 199 5.0 15.0 0.00 0.00 0.00 53 1008.4
20260508181955 66 199 5.0 15.0 0.00 0.00 0.00 52 1008.6
20260508181455 66 193 4.0 15.0 0.00 0.00 0.00 52 1008.7
20260508180955 66 204 5.0 15.0 0.00 0.00 0.00 52 1008.5
20260508180454 66 202 5.0 19.0 0.00 0.00 0.00 51 1008.7
20260508175954 67 212 8.0 19.0 0.00 0.00 0.00 50 1008.6
20260508175454 67 216 8.0 14.0 0.00 0.00 0.00 50 1008.8
20260508174954 68 215 8.0 19.0 0.00 0.00 0.00 49 1008.7
20260508174454 67 223 9.0 19.0 0.00 0.00 0.00 49 1008.6
20260508173954 67 213 7.0 19.0 0.00 0.00 0.00 50 1008.7
20260508173454 67 202 8.0 19.0 0.00 0.00 0.00 49 1009.0
20260508172953 67 228 7.0 15.0 0.00 0.00 0.00 49 1009.1
20260508171937 68 210 7.0 14.0 0.00 0.00 0.00 48 1009.1
20260508171436 68 209 5.0 15.0 0.00 0.00 0.00 50 1009.4
20260508170935 68 189 6.0 15.0 0.00 0.00 0.00 50 1009.5
20260508170434 67 178 6.0 13.0 0.00 0.00 0.00 53 1009.7
20260508165934 66 214 6.0 13.0 0.00 0.00 0.00 52 1009.6
20260508165434 66 200 6.0 13.0 0.00 0.00 0.00 53 1009.6
20260508164933 65 218 7.0 13.0 0.00 0.00 0.00 52 1009.7
20260508164432 65 198 6.0 15.0 0.00 0.00 0.00 53 1009.8
20260508162900 65 215 7.0 13.0 0.00 0.00 0.00 53 1010.1
20260508162400 65 206 6.0 14.0 0.00 0.00 0.00 53 1010.4
20260508161344 65 203 5.0 12.0 0.00 0.00 0.00 53 1009.9
20260508155814 65 199 5.0 12.0 0.00 0.00 0.00 52 1010.1
20260508155314 65 209 6.0 12.0 0.00 0.00 0.00 52 1010.6
20260508154814 66 221 7.0 12.0 0.00 0.00 0.00 51 1010.5
20260508154314 66 226 5.0 14.0 0.00 0.00 0.00 51 1010.3
20260508153813 66 215 7.0 14.0 0.00 0.00 0.00 51 1010.4
20260508153313 66 225 5.0 15.0 0.00 0.00 0.00 51 1010.3
20260508152813 66 224 9.0 19.0 0.00 0.00 0.00 49 1010.5
20260508152313 66 216 9.0 19.0 0.00 0.00 0.00 48 1010.3
20260508151257 67 219 7.0 14.0 0.00 0.00 0.00 49 1010.7
20260508150757 66 229 7.0 15.0 0.00 0.00 0.00 50 1010.4
20260508145225 65 211 6.0 14.0 0.00 0.00 0.00 51 1010.8
20260508144724 65 230 5.0 14.0 0.00 0.00 0.00 52 1010.6
20260508144224 65 215 8.0 14.0 0.00 0.00 0.00 51 1010.7
20260508143723 64 223 6.0 12.0 0.00 0.00 0.00 52 1010.8
20260508143223 64 230 4.0 14.0 0.00 0.00 0.00 53 1010.7
20260508142723 63 232 6.0 14.0 0.00 0.00 0.00 53 1011.0
20260508142222 63 219 8.0 14.0 0.00 0.00 0.00 52 1010.8
20260508141206 63 225 8.0 16.0 0.00 0.00 0.00 53 1011.1
20260508140706 62 221 5.0 13.0 0.00 0.00 0.00 54 1010.9
20260508140205 62 211 5.0 12.0 0.00 0.00 0.00 54 1011.1
20260508135705 61 213 5.0 12.0 0.00 0.00 0.00 54 1011.2
20260508135204 61 218 7.0 12.0 0.00 0.00 0.00 55 1011.1
20260508134704 60 223 5.0 12.0 0.00 0.00 0.00 55 1011.0
20260508134204 60 210 5.0 12.0 0.00 0.00 0.00 55 1011.0
20260508133704 59 202 4.0 13.0 0.00 0.00 0.00 56 1011.1
20260508133204 59 208 5.0 13.0 0.00 0.00 0.00 57 1011.2
20260508132703 58 208 5.0 13.0 0.00 0.00 0.00 58 1011.2
20260508132203 58 222 6.0 13.0 0.00 0.00 0.00 58 1011.2
20260508131703 57 201 4.0 11.0 0.00 0.00 0.00 59 1011.3
20260508131203 57 215 5.0 11.0 0.00 0.00 0.00 59 1011.1
20260508130703 56 208 3.0 11.0 0.00 0.00 0.00 60 1011.0
20260508130202 56 201 5.0 11.0 0.00 0.00 0.00 60 1011.0
20260508125702 56 192 4.0 11.0 0.00 0.00 0.00 61 1010.9
20260508125201 55 207 4.0 11.0 0.00 0.00 0.00 61 1010.9
20260508124701 55 197 4.0 11.0 0.00 0.00 0.00 62 1011.1
20260508124200 54 194 5.0 11.0 0.00 0.00 0.00 62 1011.2
20260508123700 54 205 4.0 11.0 0.00 0.00 0.00 62 1011.1
20260508123200 54 206 4.0 11.0 0.00 0.00 0.00 63 1011.1
20260508122700 53 208 3.0 11.0 0.00 0.00 0.00 64 1011.1
20260508122159 53 205 1.0 11.0 0.00 0.00 0.00 64 1011.0
20260508121659 53 175 2.0 11.0 0.00 0.00 0.00 64 1011.4
20260508121158 52 194 3.0 11.0 0.00 0.00 0.00 64 1011.0
20260508120657 52 183 4.0 11.0 0.00 0.00 0.00 65 1011.3
20260508120156 52 179 3.0 11.0 0.00 0.00 0.00 65 1010.9
20260508115656 51 193 4.0 11.0 0.00 0.00 0.00 65 1011.1
20260508115155 51 185 3.0 11.0 0.00 0.00 0.00 65 1011.1
20260508114654 51 184 3.0 11.0 0.00 0.00 0.00 65 1011.0
20260508114154 51 190 4.0 11.0 0.00 0.00 0.00 66 1011.1
20260508113653 50 187 3.0 11.0 0.00 0.00 0.00 66 1010.9
20260508113153 50 181 3.0 11.0 0.00 0.00 0.00 66 1011.1
20260508112653 50 185 3.0 11.0 0.00 0.00 0.00 66 1010.8
20260508112153 50 193 3.0 11.0 0.00 0.00 0.00 66 1010.7
20260508111653 50 185 3.0 11.0 0.00 0.00 0.00 66 1010.8
20260508110638 50 184 3.0 11.0 0.00 0.00 0.00 67 1010.6
20260508105623 50 199 3.0 11.0 0.00 0.00 0.00 66 1010.9
20260508105123 50 193 4.0 11.0 0.00 0.00 0.00 66 1010.6
20260508104108 50 197 3.0 11.0 0.00 0.00 0.00 66 1010.8
20260508103053 50 190 1.0 11.0 0.00 0.00 0.00 65 1010.8
20260508102553 51 195 2.0 11.0 0.00 0.00 0.00 65 1010.8
20260508102052 51 198 3.0 11.0 0.00 0.00 0.00 65 1010.8
20260508101552 51 201 2.0 11.0 0.00 0.00 0.00 65 1010.8
20260508101052 51 189 2.0 11.0 0.00 0.00 0.00 65 1010.8
20260508100552 51 183 2.0 11.0 0.00 0.00 0.00 66 1010.9
20260508100051 51 206 2.0 11.0 0.00 0.00 0.00 65 1010.7
20260508095036 51 198 3.0 11.0 0.00 0.00 0.00 66 1010.7
20260508094021 51 198 1.0 11.0 0.00 0.00 0.00 66 1010.9
20260508093521 52 197 1.0 11.0 0.00 0.00 0.00 66 1010.6
20260508091951 53 184 2.0 11.0 0.00 0.00 0.00 64 1011.0
20260508091451 53 196 2.0 11.0 0.00 0.00 0.00 63 1011.0
20260508090951 53 207 1.0 11.0 0.00 0.00 0.00 62 1010.9
20260508090451 53 207 2.0 11.0 0.00 0.00 0.00 61 1010.9
20260508085950 54 196 2.0 11.0 0.00 0.00 0.00 61 1010.9
20260508084935 54 211 3.0 11.0 0.00 0.00 0.00 60 1010.9
20260508084435 54 206 2.0 11.0 0.00 0.00 0.00 60 1011.2
20260508083935 54 218 2.0 11.0 0.00 0.00 0.00 60 1011.2
20260508083434 53 218 2.0 11.0 0.00 0.00 0.00 61 1011.0
20260508082419 53 227 2.0 11.0 0.00 0.00 0.00 62 1011.4
20260508081918 53 229 3.0 11.0 0.00 0.00 0.00 62 1011.0
20260508080347 53 216 2.0 11.0 0.00 0.00 0.00 63 1011.0
20260508075846 53 213 3.0 11.0 0.00 0.00 0.00 62 1011.5
20260508075346 53 213 3.0 11.0 0.00 0.00 0.00 62 1011.2
20260508074846 53 215 3.0 11.0 0.00 0.00 0.00 62 1011.1
20260508074346 53 220 3.0 11.0 0.00 0.00 0.00 62 1011.2
20260508073331 53 211 3.0 11.0 0.00 0.00 0.00 62 1011.2
20260508072831 52 207 2.0 11.0 0.00 0.00 0.00 63 1011.1
20260508072331 52 206 3.0 11.0 0.00 0.00 0.00 63 1011.4
20260508071315 52 208 0.0 11.0 0.00 0.00 0.00 64 1011.2
20260508070814 52 205 2.0 11.0 0.00 0.00 0.00 63 1011.5
20260508070313 52 207 2.0 11.0 0.00 0.00 0.00 63 1011.4
20260508065257 52 204 2.0 11.0 0.00 0.00 0.00 63 1011.4
20260508064757 52 208 3.0 11.0 0.00 0.00 0.00 63 1011.2
20260508064257 52 207 2.0 11.0 0.00 0.00 0.00 63 1011.4
20260508063756 52 206 3.0 11.0 0.00 0.00 0.00 63 1011.5
20260508062739 52 204 3.0 11.0 0.00 0.00 0.00 62 1011.7
20260508062238 52 211 2.0 11.0 0.00 0.00 0.00 62 1011.6
20260508061738 52 213 3.0 11.0 0.00 0.00 0.00 62 1011.7
20260508061238 52 200 3.0 11.0 0.00 0.00 0.00 62 1011.4
20260508060738 52 198 4.0 11.0 0.00 0.00 0.00 62 1011.2
20260508060237 52 213 3.0 11.0 0.00 0.00 0.00 62 1011.5
20260508055737 52 202 3.0 11.0 0.00 0.00 0.00 63 1011.7
20260508055237 52 207 2.0 11.0 0.00 0.00 0.00 63 1011.7
20260508054737 52 193 2.0 11.0 0.00 0.00 0.00 63 1011.4
20260508053721 52 184 2.0 11.0 0.00 0.00 0.00 62 1011.8
20260508053220 52 201 3.0 11.0 0.00 0.00 0.00 62 1011.7
20260508052720 52 199 3.0 11.0 0.00 0.00 0.00 62 1011.6
20260508051705 52 191 2.0 11.0 0.00 0.00 0.00 62 1011.6
20260508051205 52 205 3.0 11.0 0.00 0.00 0.00 61 1011.8
20260508050704 53 201 3.0 11.0 0.00 0.00 0.00 61 1011.7
20260508050203 53 196 3.0 11.0 0.00 0.00 0.00 62 1011.6
20260508045702 53 202 3.0 11.0 0.00 0.00 0.00 62 1011.5
20260508044132 53 192 3.0 11.0 0.00 0.00 0.00 63 1011.8
20260508043632 52 201 3.0 11.0 0.00 0.00 0.00 62 1011.7
20260508042616 52 222 2.0 11.0 0.00 0.00 0.00 63 1011.9
20260508042116 52 206 2.0 11.0 0.00 0.00 0.00 64 1011.7
20260508041616 52 196 3.0 11.0 0.00 0.00 0.00 64 1011.9
20260508040600 52 210 3.0 11.0 0.00 0.00 0.00 65 1011.7
20260508040059 52 195 3.0 11.0 0.00 0.00 0.00 65 1011.5
20260508035558 52 199 3.0 11.0 0.00 0.00 0.00 65 1011.6
20260508034542 52 191 3.0 11.0 0.00 0.00 0.00 67 1011.6
20260508034042 52 190 2.0 11.0 0.00 0.00 0.00 68 1011.4
20260508033541 51 194 3.0 11.0 0.00 0.00 0.00 69 1011.6
20260508033041 51 202 3.0 11.0 0.00 0.00 0.00 70 1011.4
20260508032541 51 185 3.0 11.0 0.00 0.00 0.00 71 1011.6
20260508032041 51 184 1.0 11.0 0.00 0.00 0.00 72 1011.7
20260508031541 51 184 0.0 11.0 0.00 0.00 0.00 72 1011.7
20260508031040 51 184 2.0 11.0 0.00 0.00 0.00 73 1011.5
20260508030025 51 184 2.0 11.0 0.00 0.00 0.00 73 1011.8
20260508025525 51 176 1.0 11.0 0.00 0.00 0.00 73 1011.8
20260508025025 52 175 1.0 11.0 0.00 0.00 0.00 73 1011.7
20260508024525 52 171 2.0 11.0 0.00 0.00 0.00 72 1011.4
20260508024025 52 170 1.0 11.0 0.00 0.00 0.00 72 1011.4
20260508023524 52 171 2.0 11.0 0.00 0.00 0.00 71 1011.3
20260508023024 52 170 2.0 11.0 0.00 0.00 0.00 71 1011.4
20260508022524 52 170 2.0 11.0 0.00 0.00 0.00 71 1011.2
20260508022024 52 170 2.0 11.0 0.00 0.00 0.00 70 1011.3
20260508021009 52 182 2.0 11.0 0.00 0.00 0.00 70 1011.3
20260508020509 53 213 2.0 11.0 0.00 0.00 0.00 69 1011.2
20260508020009 53 213 1.0 11.0 0.00 0.00 0.00 69 1011.1
20260508015509 53 213 0.0 11.0 0.00 0.00 0.00 68 1011.3
20260508015009 53 245 1.0 11.0 0.00 0.00 0.00 68 1011.1
20260508014509 53 254 0.0 11.0 0.00 0.00 0.00 67 1011.3
20260508014009 53 254 0.0 11.0 0.00 0.00 0.00 66 1011.3
20260508013509 53 254 0.0 11.0 0.00 0.00 0.00 65 1011.3
20260508013009 54 254 0.0 11.0 0.00 0.00 0.00 65 1011.1
20260508012509 54 254 0.0 11.0 0.00 0.00 0.00 64 1011.0
20260508012009 54 254 1.0 11.0 0.00 0.00 0.00 64 1011.1
20260508010953 54 257 1.0 11.0 0.00 0.00 0.00 64 1011.2
20260508005937 55 256 1.0 11.0 0.00 0.00 0.00 63 1011.5
20260508005436 55 273 1.0 11.0 0.00 0.00 0.00 63 1011.5
20260508004936 55 253 1.0 11.0 0.00 0.00 0.00 63 1011.4
20260508004436 55 275 0.0 11.0 0.00 0.00 0.00 63 1011.4
20260508003936 55 274 1.0 11.0 0.00 0.00 0.00 62 1011.1
20260508003435 55 274 1.0 11.0 0.00 0.00 0.00 61 1011.4
20260508002934 55 276 0.0 11.0 0.00 0.00 0.00 61 1011.1
20260508002434 55 276 1.0 11.0 0.00 0.00 0.00 61 1011.2
20260508001933 55 276 0.0 11.0 0.00 0.00 0.00 61 1011.0
20260508001433 55 276 2.0 11.0 0.00 0.00 0.00 61 1011.5
20260508000933 55 268 2.0 11.0 0.00 0.00 0.00 61 1011.5
20260508000434 55 227 1.0 11.0 0.00 0.00 0.00 61 1011.1
20260507235933 56 214 2.0 11.0 0.00 0.00 0.00 61 1011.3
20260507235433 56 279 3.0 11.0 0.00 0.00 0.00 60 1011.3
20260507234418 58 270 4.0 16.0 0.00 0.00 0.00 55 1011.7
20260507233918 59 256 8.0 16.0 0.00 0.00 0.00 49 1011.4
20260507233418 59 256 6.0 15.0 0.00 0.00 0.00 43 1011.4
20260507232918 60 267 5.0 15.0 0.00 0.00 0.00 43 1011.4
20260507232417 60 300 6.0 15.0 0.00 0.00 0.00 42 1011.5
20260507231916 61 231 3.0 12.0 0.00 0.00 0.00 40 1011.2